Flag for Qatar Weather past 2 weeks in Al Khor, Qatar

Now
111 °F

Passing clouds.


Feels Like: 115 °F
Forecast: 94 / 105 °F
Wind: 18 mph from Northwest

Location: Doha International Airport

Current Time: Jul 6, 2015 at 1:03:09 PM

Latest Report: Jul 6, 2015 at 12:00 PM


Visibility: N/A

Pressure: 29.47 "Hg

Humidity: 21%

Dew point: 63 °F

Location of Al KhorLocation

Historic Weather in Al Khor — Graph

°F

Al Khor temperature yesterday

Maximum temperature yesterday: 106 °F (at 11:00 AM)
Minimum temperature yesterday: 90 °F (at 3:00 AM)
Average temperature yesterday: 97 °F

Past Weeks' High & Low Weather Summary

 TemperatureHumidityPressure
High111 °F (Jul 6, 11:00 AM)84% (Jul 4, 4:00 AM)29.65 "Hg (Jul 4, 4:00 AM)
Low81 °F (Jun 26, 7:00 PM)7% (Jun 25, 3:00 PM)29.42 "Hg (Jun 21, 3:00 PM)
Average98 °F32%29.54 "Hg
* Reported Jun 21 12:00 Noon — Jul 6 12:00 Noon, Al Khor, Weather by CustomWeather, © 2015

Note: Actual official high and low records may vary slightly from our data, if they occured in-between our weather recording intervals... More about our weather records

Advertising

Al Khor weather history for previous 24 hours

 ConditionsComfort  
Time TempWeatherWind HumidityBarometerVisibility
12:00 PM
Mon, Jul 6
111 °FPassing clouds.18 mph21%29.47 "HgN/A
11:00 AM111 °FClear.15 mph12%29.50 "Hg5 mi
10:00 AM108 °FClear.18 mph17%29.50 "Hg3 mi
9:00 AM106 °FDuststorm.15 mph20%29.53 "Hg3 mi
8:00 AM102 °FClear.12 mph24%29.53 "Hg4 mi
7:00 AM99 °FClear.14 mph29%29.53 "Hg4 mi
6:00 AM97 °FClear.17 mph34%29.50 "Hg5 mi
2:00 AM91 °FClear.3 mph80%29.53 "Hg10 mi
10:00 PM
Sun, Jul 5
91 °FHaze.3 mph80%29.53 "Hg3 mi
9:00 PM91 °FHaze.3 mph80%29.53 "Hg3 mi
8:00 PM93 °FClear.6 mph71%29.50 "Hg4 mi
7:00 PM95 °FClear.6 mph63%29.50 "Hg4 mi
6:00 PM97 °FClear.5 mph53%29.50 "Hg4 mi
5:00 PM100 °FClear.6 mph40%29.50 "Hg4 mi
4:00 PM102 °FClear.7 mph42%29.50 "Hg4 mi
3:00 PM102 °FClear.8 mph45%29.50 "Hg4 mi
2:00 PM104 °FClear.9 mph33%29.50 "Hg4 mi
1:00 PM106 °FClear.9 mph32%29.53 "Hg4 mi
Weather by CustomWeather, © 2015

See weather overviewHow to use our weather pages